Location: Key Biscayne
(25.6930°N, 80.1630°W)
Time: 19:02:58
(UTC-05:00)

Hubble Space Telescope - Pass Details

Date: 13 November 2017
Orbit: 537 x 541 km, 28.5° (Epoch: 24 November)

Event Time Altitude Azimuth Distance (km) Brightness Sun altitude
Exits shadow 05:14:03 - 207° (SSW) 2,216 3.8 -18.9°
Reaches altitude 10° 05:15:34 10° 194° (SSW) 1,775 3.4 -18.5°
Maximum altitude 05:18:17 17° 152° (SSE) 1,385 3.3 -17.9°
Drops below altitude 10° 05:21:00 10° 111° (ESE) 1,780 4.7 -17.3°
Sets 05:23:53 0° 91° (E) 2,673 6.0 -16.7°
